Location: Hebron
(33.0265°N, 96.8636°W)
Time: 23:19:22
(UTC+00:00)

Okean 1 - Pass Details

Date: 12 July 2022
Orbit: 532 x 553 km, 82.5° (Epoch: 16 August)

Event Time Altitude Azimuth Distance (km) Brightness Sun altitude
Rises 09:35:08 0° 332° (NNW) 2,679 7.1 -20.0°
Reaches altitude 10° 09:37:56 10° 311° (NW) 1,783 5.9 -19.5°
Enters shadow 09:38:46 13° 300° (WNW) 1,594 5.5 -19.4°
